{"data":{"norad_id":58091,"intl_designator":"2023-160S","name":"STARLINK-30608","alt_names":[],"object_type":"PAYLOAD","status":"ACTIVE","operator":null,"country":"US","launch_date":"2023-10-18","launch_site_code":"AFETR","launch_vehicle":null,"mission":null,"orbit_class":"UNKNOWN","rcs_meters":null,"size_class":null,"mass_kg":null,"dimensions":null,"purposes":["comms"],"wikipedia_slug":null,"has_3d_model":false,"image_url":null,"decayed_at":null,"tle_current":{"epoch":"2026-05-24T22:08:25.002240Z","epoch_age_seconds":74996,"freshness":"FRESH","line1":"1 58091U 23160S   26144.92251160  .00000546  00000+0  29382-4 0  9990","line2":"2 58091  43.0064   7.4437 0001710 285.1180  74.9482 15.27574298144600","mean_motion":15.27574298,"eccentricity":0.000171,"inclination_deg":43.0064,"raan_deg":7.4437,"arg_perigee_deg":285.118,"mean_anomaly_deg":74.9482,"bstar":2.9382e-5,"rev_number":14460,"period_min":94.26710058459,"perigee_km":481.89290418999,"apogee_km":484.2394356741,"semimajor_km":6861.203169932,"source":"CELESTRAK","updated_at":"2026-05-25T13:38:18.524469Z"}}}